Flag for Mexico Weather past 2 weeks in Oaxaca, Oaxaca, Mexico

Now
64 °F

Passing clouds.


Feels Like: 64 °F
Forecast: 58 / 83 °F
Wind: 6 mph from Northeast

Location: Oaxaca / Xoxocotlan

Current Time: Jul 4, 2015 at 2:01:24 AM

Latest Report: Jul 3, 2015 at 11:40 PM


Visibility: 7 mi

Pressure: 30.25 "Hg (25.17 "Hg at 1566m altitude)

Humidity: 78%

Dew point: 57 °F

Location of OaxacaLocation

Historic Weather in Oaxaca — Graph

°F

Oaxaca temperature yesterday

Maximum temperature yesterday: 82 °F (at 4:45 PM)
Minimum temperature yesterday: 61 °F (at 6:56 AM)
Average temperature yesterday: 69 °F

Past Weeks' High & Low Weather Summary

 TemperatureHumidityPressure
High84 °F (Jun 26, 4:45 PM)94% (Jun 20, 7:44 AM)30.33 "Hg (Jun 20, 7:44 AM)
Low55 °F (Jun 25, 6:58 AM)26% (Jun 22, 3:46 PM)29.64 "Hg (Jul 3, 3:45 PM)
Average68 °F66%30.12 "Hg
* Reported Jun 18 11:45 PM — Jul 3 11:40 PM, Oaxaca, Weather by CustomWeather, © 2015

Note: Actual official high and low records may vary slightly from our data, if they occured in-between our weather recording intervals... More about our weather records

Advertising

Oaxaca weather history for previous 24 hours

 ConditionsComfort  
Time TempWeatherWind HumidityBarometerVisibility
11:40 PM
Fri, Jul 3
64 °FPassing clouds.6 mph78%30.25 "Hg7 mi
10:46 PM64 °FPassing clouds.5 mph83%30.23 "Hg7 mi
9:46 PM64 °FMostly cloudy.6 mph83%29.87 "Hg7 mi
8:52 PM64 °FMostly cloudy.7 mph83%30.20 "Hg7 mi
5:47 PM75 °FThunderstorms. Partly sunny.9 mph44%30.08 "Hg1 mi
4:45 PM82 °FBroken clouds.6 mph30%30.07 "Hg12 mi
3:45 PM81 °FScattered clouds.8 mph28%29.64 "Hg12 mi
2:45 PM79 °FPassing clouds.7 mph34%30.12 "Hg12 mi
1:46 PM79 °FPartly sunny.6 mph37%30.15 "Hg10 mi
12:45 PM75 °FPartly sunny.No wind47%29.80 "Hg10 mi
11:47 AM72 °FPartly sunny.5 mph53%30.21 "Hg8 mi
10:45 AM70 °FPartly sunny.2 mph57%30.22 "Hg8 mi
9:45 AM68 °FScattered clouds.3 mph64%29.83 "Hg8 mi
7:53 AM61 °FPassing clouds.No wind88%30.19 "Hg8 mi
6:56 AM61 °FPassing clouds.2 mph83%29.80 "Hg8 mi
5:45 AM63 °FPartly cloudy.6 mph77%30.17 "Hg7 mi
4:45 AM63 °FMostly cloudy.6 mph73%30.18 "Hg7 mi
3:45 AM66 °FMostly cloudy.No wind64%29.74 "Hg7 mi
2:45 AM66 °FMostly cloudy.6 mph68%30.20 "Hg7 mi
Weather by CustomWeather, © 2015

See weather overviewHow to use our weather pages